HAZ2756 ZHCC-ZSHC

Flight info

Callsign HAZ2756
Flight time 1h 9m
Altitude 35100
Route RUMGU W594 EPGOS W128 FYG B208 HFE R343 UPLEL W95 SAPIN A470 IGRAT
Aircraft B738/M-SDE2E3FGHIRWXY/LB1

Departure

Time 2026-04-24 14:12
Airport Zhengzhou Xinzheng International Airport (ZHCC)

Arrival

Time 2026-04-24 15:22
Airport Hangzhou Xiaoshan International Airport (ZSHC)
Time Latitude Longitude Altitude Speed Heading
2026-04-24 13:34 34.52943 113.85387 503 ft 0 kts 292°
2026-04-24 14:01 34.52935 113.85410 503 ft 4 kts 296°
2026-04-24 14:02 34.52922 113.85438 503 ft 4 kts 308°
2026-04-24 14:02 34.52903 113.85458 503 ft 4 kts 347°
2026-04-24 14:02 34.52891 113.85458 503 ft 0 kts 22°
2026-04-24 14:05 34.52892 113.85458 503 ft 1 kts 22°
2026-04-24 14:05 34.52939 113.85481 503 ft 12 kts 22°
2026-04-24 14:06 34.53016 113.85521 503 ft 12 kts 22°
2026-04-24 14:06 34.53090 113.85558 503 ft 11 kts 22°
2026-04-24 14:06 34.53161 113.85594 503 ft 10 kts 23°
2026-04-24 14:06 34.53221 113.85612 503 ft 9 kts 346°
2026-04-24 14:07 34.53257 113.85557 503 ft 9 kts 293°
2026-04-24 14:07 34.53288 113.85464 503 ft 16 kts 292°
2026-04-24 14:07 34.53332 113.85335 503 ft 16 kts 292°
2026-04-24 14:07 34.53373 113.85214 503 ft 15 kts 292°
2026-04-24 14:08 34.53412 113.85100 503 ft 14 kts 292°
2026-04-24 14:08 34.53449 113.84994 503 ft 13 kts 292°
2026-04-24 14:08 34.53488 113.84873 503 ft 18 kts 293°
2026-04-24 14:08 34.53536 113.84737 503 ft 17 kts 292°
2026-04-24 14:09 34.53580 113.84607 503 ft 16 kts 292°
2026-04-24 14:09 34.53622 113.84485 503 ft 15 kts 292°
2026-04-24 14:09 34.53661 113.84370 503 ft 14 kts 292°
2026-04-24 14:09 34.53698 113.84263 503 ft 13 kts 292°
2026-04-24 14:10 34.53721 113.84196 503 ft 12 kts 292°
2026-04-24 14:10 34.53759 113.84083 503 ft 9 kts 292°
2026-04-24 14:10 34.53782 113.84023 503 ft 7 kts 308°
2026-04-24 14:10 34.53825 113.84011 503 ft 7 kts 15°
2026-04-24 14:11 34.53868 113.84032 503 ft 7 kts 23°
2026-04-24 14:11 34.53910 113.84052 503 ft 6 kts 22°
2026-04-24 14:11 34.53923 113.84146 503 ft 13 kts 112°
2026-04-24 14:12 34.53806 113.84479 503 ft 81 kts 111°
2026-04-24 14:12 34.53500 113.85383 505 ft 149 kts 112°
2026-04-24 14:12 34.53077 113.86681 974 ft 175 kts 112°
2026-04-24 14:12 34.52629 113.88048 1985 ft 170 kts 113°
2026-04-24 14:13 34.52196 113.89367 2919 ft 170 kts 114°
2026-04-24 14:13 34.51728 113.90778 3375 ft 193 kts 115°
2026-04-24 14:13 34.51181 113.92387 3697 ft 220 kts 116°
2026-04-24 14:13 34.50554 113.94210 4060 ft 245 kts 116°
2026-04-24 14:14 34.49872 113.96184 4690 ft 261 kts 116°
2026-04-24 14:14 34.49164 113.98226 5444 ft 271 kts 116°
2026-04-24 14:14 34.47661 114.02552 7180 ft 281 kts 115°
2026-04-24 14:15 34.46880 114.04702 8028 ft 284 kts 119°
2026-04-24 14:15 34.45834 114.06734 8867 ft 286 kts 128°
2026-04-24 14:15 34.44553 114.08610 9489 ft 293 kts 133°
2026-04-24 14:15 34.43167 114.10431 10068 ft 296 kts 134°
2026-04-24 14:16 34.41741 114.12269 10754 ft 305 kts 134°
2026-04-24 14:16 34.40241 114.14206 11106 ft 326 kts 134°
2026-04-24 14:16 34.38638 114.16277 11382 ft 346 kts 134°
2026-04-24 14:17 34.35245 114.20670 12754 ft 365 kts 133°
2026-04-24 14:17 34.33503 114.22925 13871 ft 369 kts 133°
2026-04-24 14:17 34.29955 114.27517 15966 ft 379 kts 133°
2026-04-24 14:18 34.28137 114.29868 16875 ft 385 kts 133°
2026-04-24 14:18 34.26302 114.32242 17600 ft 388 kts 133°
2026-04-24 14:18 34.24449 114.34635 18216 ft 392 kts 134°
2026-04-24 14:18 34.22434 114.36870 18832 ft 395 kts 142°
2026-04-24 14:19 34.20945 114.38142 19237 ft 397 kts 148°
2026-04-24 14:19 34.17664 114.40231 20021 ft 401 kts 156°
2026-04-24 14:19 34.15120 114.41533 20615 ft 403 kts 159°
2026-04-24 14:19 34.12468 114.42797 21203 ft 406 kts 160°
2026-04-24 14:20 34.09828 114.44071 21756 ft 410 kts 160°
2026-04-24 14:20 34.07174 114.45368 22292 ft 413 kts 159°
2026-04-24 14:20 34.04504 114.46682 22832 ft 416 kts 159°
2026-04-24 14:20 34.01818 114.48009 23353 ft 419 kts 159°
2026-04-24 14:21 33.99109 114.49349 23834 ft 422 kts 159°
2026-04-24 14:21 33.96382 114.50701 24323 ft 425 kts 159°
2026-04-24 14:21 33.93678 114.52062 24757 ft 429 kts 160°
2026-04-24 14:21 33.90905 114.53445 25184 ft 433 kts 160°
2026-04-24 14:22 33.88075 114.54850 25614 ft 436 kts 160°
2026-04-24 14:22 33.85295 114.56227 26023 ft 439 kts 160°
2026-04-24 14:22 33.79597 114.59042 26794 ft 446 kts 161°
2026-04-24 14:23 33.76712 114.60466 27173 ft 449 kts 161°
2026-04-24 14:23 33.73812 114.61895 27541 ft 453 kts 161°
2026-04-24 14:23 33.70890 114.63336 27917 ft 455 kts 161°
2026-04-24 14:23 33.67950 114.64784 28261 ft 458 kts 161°
2026-04-24 14:24 33.64995 114.66237 28618 ft 460 kts 162°
2026-04-24 14:24 33.62010 114.67652 28941 ft 463 kts 162°
2026-04-24 14:24 33.59002 114.69076 29282 ft 465 kts 163°
2026-04-24 14:24 33.55985 114.70506 29595 ft 468 kts 163°
2026-04-24 14:25 33.53935 114.71479 29802 ft 470 kts 163°
2026-04-24 14:25 33.50007 114.73752 30197 ft 479 kts 153°
2026-04-24 14:25 33.48172 114.75229 30395 ft 483 kts 147°
2026-04-24 14:25 33.44783 114.78842 30776 ft 491 kts 137°
2026-04-24 14:26 33.43246 114.80839 30953 ft 494 kts 135°
2026-04-24 14:26 33.40262 114.85044 31422 ft 495 kts 133°
2026-04-24 14:26 33.38049 114.88181 31858 ft 492 kts 133°
2026-04-24 14:26 33.36578 114.90244 32108 ft 492 kts 134°
2026-04-24 14:27 33.34348 114.93351 32453 ft 491 kts 134°
2026-04-24 14:27 33.32124 114.96436 32862 ft 489 kts 134°
2026-04-24 14:27 33.29900 114.99511 33215 ft 489 kts 134°
2026-04-24 14:27 33.27675 115.02582 33531 ft 489 kts 134°
2026-04-24 14:28 33.25457 115.05645 33920 ft 487 kts 134°
2026-04-24 14:28 33.23255 115.08716 34248 ft 486 kts 134°
2026-04-24 14:28 33.21044 115.11782 34545 ft 486 kts 135°
2026-04-24 14:28 33.18835 115.14834 34836 ft 487 kts 135°
2026-04-24 14:29 33.16629 115.17904 35120 ft 487 kts 135°
2026-04-24 14:29 33.12168 115.24048 35178 ft 491 kts 135°
2026-04-24 14:30 33.07700 115.30165 35186 ft 487 kts 135°
2026-04-24 14:30 33.03260 115.36233 35189 ft 485 kts 135°
2026-04-24 14:31 32.98996 115.42482 35190 ft 489 kts 128°
2026-04-24 14:31 32.95748 115.49643 35191 ft 495 kts 116°
2026-04-24 14:32 32.93329 115.57334 35193 ft 496 kts 112°
2026-04-24 14:32 32.90918 115.65028 35194 ft 496 kts 113°
2026-04-24 14:33 32.88142 115.72439 35194 ft 492 kts 123°
2026-04-24 14:33 32.84312 115.79094 35196 ft 485 kts 133°
2026-04-24 14:34 32.79968 115.85218 35204 ft 484 kts 135°
2026-04-24 14:34 32.75646 115.91343 35209 ft 484 kts 135°
2026-04-24 14:35 32.71329 115.97492 35209 ft 484 kts 135°
2026-04-24 14:35 32.67003 116.03617 35209 ft 484 kts 135°
2026-04-24 14:36 32.62677 116.09724 35210 ft 483 kts 136°
2026-04-24 14:36 32.58347 116.15833 35210 ft 484 kts 136°
2026-04-24 14:37 32.54044 116.21981 35210 ft 485 kts 135°
2026-04-24 14:37 32.49781 116.28160 35211 ft 484 kts 135°
2026-04-24 14:38 32.45513 116.34327 35211 ft 483 kts 135°
2026-04-24 14:38 32.41246 116.40481 35211 ft 484 kts 135°
2026-04-24 14:39 32.36993 116.46669 35211 ft 484 kts 135°
2026-04-24 14:39 32.32732 116.52834 35211 ft 484 kts 135°
2026-04-24 14:40 32.28449 116.58983 35211 ft 484 kts 135°
2026-04-24 14:40 32.24163 116.65122 35212 ft 485 kts 135°
2026-04-24 14:41 32.19869 116.71267 35212 ft 485 kts 136°
2026-04-24 14:41 32.15548 116.77378 35212 ft 485 kts 136°
2026-04-24 14:42 32.11182 116.83446 35212 ft 485 kts 137°
2026-04-24 14:42 32.06846 116.89460 35212 ft 484 kts 137°
2026-04-24 14:43 32.02477 116.95513 35212 ft 485 kts 137°
2026-04-24 14:43 31.98077 117.01613 35212 ft 486 kts 137°
2026-04-24 14:44 31.93725 117.07709 35212 ft 486 kts 138°
2026-04-24 14:44 31.89380 117.13746 35212 ft 487 kts 138°
2026-04-24 14:45 31.84997 117.19820 35212 ft 487 kts 138°
2026-04-24 14:45 31.80631 117.25930 35205 ft 492 kts 134°
2026-04-24 14:45 31.78816 117.29390 35208 ft 503 kts 123°
2026-04-24 14:46 31.77530 117.33241 35210 ft 511 kts 112°
2026-04-24 14:46 31.76419 117.41533 35214 ft 518 kts 98°
2026-04-24 14:47 31.76032 117.50011 35213 ft 520 kts 97°
2026-04-24 14:47 31.75497 117.58477 35213 ft 520 kts 98°
2026-04-24 14:48 31.74906 117.66939 35214 ft 519 kts 99°
2026-04-24 14:48 31.74347 117.75408 35215 ft 521 kts 98°
2026-04-24 14:49 31.73765 117.83878 35217 ft 520 kts 98°
2026-04-24 14:49 31.73144 117.92344 35220 ft 520 kts 99°
2026-04-24 14:50 31.72514 118.00813 35223 ft 521 kts 99°
2026-04-24 14:50 31.71883 118.09284 35226 ft 520 kts 99°
2026-04-24 14:51 31.71279 118.17768 35230 ft 522 kts 98°
2026-04-24 14:51 31.70679 118.26262 35232 ft 521 kts 99°
2026-04-24 14:52 31.70076 118.34681 35235 ft 522 kts 99°
2026-04-24 14:52 31.69462 118.43169 35237 ft 522 kts 99°
2026-04-24 14:53 31.68847 118.51668 35238 ft 523 kts 98°
2026-04-24 14:53 31.68265 118.60186 35240 ft 523 kts 99°
2026-04-24 14:54 31.67677 118.68720 34971 ft 526 kts 99°
2026-04-24 14:54 31.67363 118.72977 34493 ft 523 kts 99°
2026-04-24 14:54 31.67044 118.77246 33740 ft 525 kts 99°
2026-04-24 14:54 31.66721 118.81520 33035 ft 527 kts 99°
2026-04-24 14:55 31.66506 118.84358 32638 ft 526 kts 99°
2026-04-24 14:55 31.66073 118.90040 31945 ft 520 kts 99°
2026-04-24 14:55 31.65468 118.94174 31437 ft 507 kts 112°
2026-04-24 14:55 31.64128 118.97909 30989 ft 487 kts 127°
2026-04-24 14:56 31.62178 119.01044 30409 ft 470 kts 141°
2026-04-24 14:56 31.59853 119.03676 29880 ft 460 kts 146°
2026-04-24 14:56 31.57428 119.06062 29396 ft 451 kts 151°
2026-04-24 14:56 31.54877 119.08116 28924 ft 442 kts 155°
2026-04-24 14:57 31.52377 119.10219 28453 ft 443 kts 151°
2026-04-24 14:57 31.49943 119.12409 27984 ft 439 kts 151°
2026-04-24 14:57 31.47510 119.14549 27520 ft 436 kts 151°
2026-04-24 14:57 31.45097 119.16670 27058 ft 432 kts 151°
2026-04-24 14:58 31.42729 119.18751 26602 ft 429 kts 151°
2026-04-24 14:58 31.40313 119.20866 26137 ft 426 kts 151°
2026-04-24 14:58 31.37980 119.22901 25688 ft 423 kts 150°
2026-04-24 14:58 31.35626 119.24953 25233 ft 421 kts 150°
2026-04-24 14:59 31.33281 119.26994 24778 ft 418 kts 150°
2026-04-24 14:59 31.30955 119.29018 24326 ft 416 kts 150°
2026-04-24 14:59 31.28643 119.31028 23875 ft 413 kts 150°
2026-04-24 14:59 31.26341 119.33029 23424 ft 411 kts 149°
2026-04-24 15:00 31.24052 119.35017 22975 ft 409 kts 149°
2026-04-24 15:00 31.21777 119.36992 22527 ft 407 kts 149°
2026-04-24 15:00 31.19515 119.38960 22080 ft 404 kts 149°
2026-04-24 15:00 31.17269 119.40923 21634 ft 402 kts 148°
2026-04-24 15:01 31.15031 119.42878 21188 ft 400 kts 148°
2026-04-24 15:01 31.12809 119.44819 20744 ft 398 kts 148°
2026-04-24 15:01 31.10600 119.46747 20301 ft 396 kts 147°
2026-04-24 15:01 31.08402 119.48665 19860 ft 394 kts 147°
2026-04-24 15:02 31.06211 119.50575 19420 ft 391 kts 147°
2026-04-24 15:02 31.04038 119.52469 18983 ft 389 kts 147°
2026-04-24 15:02 31.01872 119.54356 18545 ft 387 kts 146°
2026-04-24 15:02 30.99722 119.56228 18110 ft 385 kts 146°
2026-04-24 15:03 30.98302 119.57464 17822 ft 384 kts 146°
2026-04-24 15:03 30.95460 119.59968 17243 ft 381 kts 145°
2026-04-24 15:03 30.93351 119.61820 16812 ft 379 kts 145°
2026-04-24 15:03 30.91249 119.63655 16383 ft 377 kts 145°
2026-04-24 15:04 30.89158 119.65474 15956 ft 374 kts 145°
2026-04-24 15:04 30.87077 119.67281 15531 ft 372 kts 145°
2026-04-24 15:04 30.85013 119.69072 15107 ft 369 kts 144°
2026-04-24 15:04 30.82957 119.70854 14685 ft 367 kts 144°
2026-04-24 15:05 30.80923 119.72615 14265 ft 364 kts 144°
2026-04-24 15:05 30.78897 119.74370 13848 ft 361 kts 144°
2026-04-24 15:05 30.76892 119.76106 13434 ft 359 kts 144°
2026-04-24 15:05 30.74895 119.77833 13021 ft 356 kts 144°
2026-04-24 15:06 30.72916 119.79545 12611 ft 353 kts 143°
2026-04-24 15:06 30.70985 119.81230 12207 ft 351 kts 142°
2026-04-24 15:06 30.69069 119.82976 11800 ft 348 kts 142°
2026-04-24 15:06 30.67171 119.84698 11358 ft 346 kts 142°
2026-04-24 15:07 30.65270 119.86416 10868 ft 346 kts 142°
2026-04-24 15:07 30.63301 119.88003 10450 ft 343 kts 148°
2026-04-24 15:07 30.61244 119.89376 10201 ft 335 kts 151°
2026-04-24 15:07 30.59225 119.90623 10124 ft 323 kts 152°
2026-04-24 15:08 30.57279 119.91831 10047 ft 311 kts 152°
2026-04-24 15:08 30.55411 119.93002 10008 ft 298 kts 151°
2026-04-24 15:08 30.53627 119.94126 9997 ft 285 kts 151°
2026-04-24 15:08 30.51906 119.95213 9803 ft 280 kts 151°
2026-04-24 15:09 30.50195 119.96295 9480 ft 280 kts 151°
2026-04-24 15:09 30.48491 119.97373 9188 ft 278 kts 151°
2026-04-24 15:09 30.46801 119.98441 8897 ft 276 kts 151°
2026-04-24 15:09 30.45114 119.99509 8595 ft 275 kts 151°
2026-04-24 15:10 30.43439 120.00571 8291 ft 274 kts 150°
2026-04-24 15:10 30.41773 120.01631 7987 ft 273 kts 151°
2026-04-24 15:10 30.40112 120.02686 7742 ft 271 kts 151°
2026-04-24 15:10 30.38462 120.03731 7652 ft 270 kts 151°
2026-04-24 15:11 30.36814 120.04773 7578 ft 269 kts 151°
2026-04-24 15:11 30.35175 120.05810 7505 ft 268 kts 151°
2026-04-24 15:11 30.33537 120.06844 7435 ft 269 kts 151°
2026-04-24 15:11 30.31888 120.07884 7366 ft 271 kts 151°
2026-04-24 15:12 30.30385 120.08833 7302 ft 271 kts 151°
2026-04-24 15:12 30.27083 120.10916 7162 ft 270 kts 151°
2026-04-24 15:12 30.25436 120.11954 7093 ft 269 kts 151°
2026-04-24 15:13 30.23813 120.12971 7024 ft 269 kts 153°
2026-04-24 15:13 30.22031 120.13571 6941 ft 269 kts 178°
2026-04-24 15:13 30.20206 120.13177 6830 ft 271 kts 205°
2026-04-24 15:13 30.18780 120.11770 6554 ft 271 kts 235°
2026-04-24 15:14 30.17920 120.09862 6360 ft 266 kts 245°
2026-04-24 15:14 30.17395 120.08590 6225 ft 262 kts 244°
2026-04-24 15:14 30.15866 120.06505 5945 ft 256 kts 207°
2026-04-24 15:14 30.14753 120.06105 5751 ft 254 kts 185°
2026-04-24 15:15 30.13050 120.06479 5486 ft 250 kts 156°
2026-04-24 15:15 30.11554 120.07465 5251 ft 246 kts 144°
2026-04-24 15:15 30.10481 120.08942 4993 ft 241 kts 111°
2026-04-24 15:15 30.10407 120.10811 4815 ft 234 kts 75°
2026-04-24 15:16 30.11045 120.12509 4659 ft 228 kts 63°
2026-04-24 15:16 30.11815 120.14098 4497 ft 225 kts 61°
2026-04-24 15:16 30.12562 120.15657 4362 ft 218 kts 62°
2026-04-24 15:16 30.13264 120.17172 4220 ft 209 kts 62°
2026-04-24 15:17 30.13928 120.18633 4139 ft 202 kts 63°
2026-04-24 15:17 30.14566 120.20049 3922 ft 195 kts 63°
2026-04-24 15:17 30.15182 120.21424 3657 ft 191 kts 63°
2026-04-24 15:17 30.15785 120.22775 3403 ft 188 kts 64°
2026-04-24 15:18 30.16380 120.24108 3155 ft 186 kts 64°
2026-04-24 15:18 30.16969 120.25432 2910 ft 185 kts 64°
2026-04-24 15:18 30.17557 120.26753 2665 ft 184 kts 64°
2026-04-24 15:18 30.18142 120.28067 2421 ft 183 kts 64°
2026-04-24 15:19 30.18724 120.29374 2178 ft 182 kts 64°
2026-04-24 15:19 30.19301 120.30671 1934 ft 179 kts 64°
2026-04-24 15:19 30.19855 120.31917 1708 ft 169 kts 64°
2026-04-24 15:19 30.20377 120.33089 1497 ft 159 kts 64°
2026-04-24 15:20 30.20873 120.34206 1280 ft 154 kts 64°
2026-04-24 15:20 30.21358 120.35295 1075 ft 151 kts 64°
2026-04-24 15:20 30.21826 120.36349 879 ft 149 kts 64°
2026-04-24 15:20 30.22304 120.37425 680 ft 149 kts 63°
2026-04-24 15:21 30.22773 120.38479 488 ft 150 kts 63°
2026-04-24 15:21 30.23261 120.39557 287 ft 152 kts 63°
2026-04-24 15:21 30.23747 120.40654 98 ft 153 kts 64°
2026-04-24 15:21 30.24219 120.41723 38 ft 141 kts 64°
2026-04-24 15:22 30.24586 120.42549 31 ft 78 kts 63°
2026-04-24 15:22 30.24723 120.42927 31 ft 27 kts 86°
2026-04-24 15:22 30.24724 120.43044 31 ft 12 kts 91°
2026-04-24 15:23 30.24668 120.43149 31 ft 9 kts 215°
2026-04-24 15:23 30.24605 120.43026 31 ft 9 kts 242°
2026-04-24 15:23 30.24581 120.42971 31 ft 5 kts 244°
2026-04-24 15:24 30.24470 120.42984 31 ft 7 kts 151°
2026-04-24 15:25 30.24385 120.43036 31 ft 7 kts 154°
2026-04-24 15:25 30.24340 120.43062 31 ft 0 kts 152°